[[{"header":{"parameterUnit":"m.s-1","parameterCategory":2,"la1":30.2991,"la2":30.254,"lo1":-89.0895,"lo2":-89.0444,"dy":0.0017,"dx":0.0017,"nx":28,"ny":28,"refTime":"2025-11-26T03:00:00:Z","depth":"0","parameterNumber":2,"parameterNumberName":"U-component_of_CURRENTS"},"data":[0,0,0,0,0,0,0,0,0,0,0,0,0,0,0,0,0,0,0,0,0,0,0,0,0,0,0,0,0,0,0,0,0,0,0,0,0,0,0,0,0,0,0,0,0,0,0,0,0,0,0,0,0,0,0,0,0,0,0.1818,0.1818,0,0.1792,0.1792,0.1792,0.1762,0.1761,0.1761,0.1761,0.1735,0.1735,0.1734,0,0,0,0,0,0,0,0,0,0,0,0,0,0.1843,0.1843,0.1818,0.1818,0.1818,0.1792,0.1792,0.1792,0.1762,0.1761,0.1761,0.176,0.1735,0.1735,0.1734,0,0,0,0,0,0,0,0,0,0,0,0,0,0.1825,0.1842,0.1818,0.1801,0.1799,0.1793,0.1792,0.1791,0.1762,0.1761,0.1761,0.176,0.1735,0.1735,0.1734,0.1741,0,0,0.1732,0.1732,0,0,0,0,0,0,0,0,0.1826,0.1824,0.1803,0.1802,0.18,0.1781,0.1791,0.1775,0.1762,0.1775,0.1761,0.176,0.1751,0.1749,0.1744,0.174,0.1739,0.1732,0.1732,0.1732,0.1732,0,0,0,0,0,0,0,0.1827,0.1825,0.1807,0.1803,0.1801,0.1795,0.1791,0.1788,0.1765,0.1774,0.1772,0.1771,0.175,0.1745,0.1743,0.1739,0.1732,0.1732,0.1732,0.1731,0.1769,0.177,0,0,0,0,0,0,0.1833,0.1826,0.1808,0.1806,0.1813,0.1795,0.1791,0.1786,0.1765,0.1762,0.1771,0.1769,0.1746,0.1744,0.1742,0.1777,0.1732,0.1731,0.1731,0.1768,0.1769,0.1771,0,0,0,0,0,0,0.1834,0.1832,0.1809,0.1817,0.1813,0.1795,0.179,0.1786,0.1784,0.1764,0.176,0.1773,0.1745,0.1743,0.1749,0.1775,0.1731,0.1731,0.1766,0.1768,0.177,0.1829,0,0,0,0,0,0,0.1835,0.1832,0.1833,0.1817,0.1813,0.1812,0.1791,0.1786,0.1784,0.1782,0.1764,0.1761,0.1745,0.175,0.1748,0.1773,0.173,0.1765,0.1767,0.1769,0.1826,0.1833,0.1839,0,0,0,0,0,0.1836,0.1838,0.1834,0.1832,0.1815,0.1813,0.181,0.1794,0.1785,0.1789,0.178,0.1762,0.1764,0.175,0.1748,0.1774,0.1763,0.1766,0.1769,0.1823,0.1832,0.1839,0,0,0,0,0,0,0.1846,0.1835,0.183,0.1828,0.1825,0.1808,0.1811,0.1801,0.1796,0.1795,0.1774,0.177,0.1788,0.1774,0.1758,0.1793,0.1763,0.1766,0.1805,0.1813,0.182,0.183,0.173,0,0,0,0,0,0.1851,0.1852,0.1842,0.1842,0.1843,0.1829,0.1827,0.1818,0.1811,0.1807,0.1796,0.1791,0.1799,0.1799,0.1799,0.1814,0.182,0.1831,0.1838,0.1844,0.1852,0.1894,0.1906,0.1781,0.1781,0.178,0,0,0.1854,0.185,0.1849,0.1845,0.1841,0.1849,0.1826,0.1828,0.1837,0.1807,0.1816,0.1814,0.1809,0.1829,0.1836,0.1819,0.1883,0.1848,0.1853,0.1858,0.1898,0.1911,0.1921,0.1783,0.1782,0.1782,0,0,0.1864,0.186,0.1865,0.1869,0.1869,0.1866,0.187,0.186,0.186,0.1868,0.1858,0.1875,0.1868,0.1881,0.1884,0.1931,0.1919,0.1928,0.1969,0.201,0.202,0.203,0.2053,0.2064,0.193,0.193,0.193,0,0.1868,0.1874,0.1868,0.1879,0.1887,0.1877,0.1891,0.1893,0.1887,0.19,0.1879,0.191,0.1899,0.1946,0.1956,0.1948,0.196,0.1937,0.2019,0.2029,0.2038,0.2059,0.207,0.1933,0.1933,0.1932,0.1932,0,0.1883,0.1892,0.1899,0.1911,0.1922,0.1932,0.1938,0.1951,0.1949,0.1952,0.1991,0.1987,0.2006,0.201,0.1991,0.2055,0.204,0.2025,0.1999,0.2054,0.2072,0.2083,0.1938,0.1937,0.1936,0.1935,0,0,0.1873,0.1904,0.1904,0.1918,0.194,0.1946,0.1982,0.2009,0.2036,0.2041,0.2084,0.2099,0.2099,0.2104,0.2098,0.2128,0.2191,0.21,0.2101,0.2123,0.2274,0.2195,0.2199,0.2192,0.2194,0.2196,0.2262,0,0.1884,0.1911,0.1929,0.1958,0.1972,0.1995,0.2027,0.2055,0.2077,0.2115,0.2136,0.2166,0.2135,0.2149,0.2179,0.2188,0.2223,0.2174,0.2216,0.2218,0.2142,0.221,0.2127,0.2173,0.2272,0.2274,0.2275,0,0.1887,0.1907,0.1937,0.1983,0.1993,0.2015,0.2074,0.2101,0.2162,0.2185,0.2233,0.2242,0.2292,0.2254,0.2315,0.2284,0.2286,0.2291,0.2293,0.2207,0.2159,0.2134,0.2189,0.2164,0.2292,0.229,0.2289,0,0.1867,0.191,0.1935,0.1948,0.2,0.2028,0.2058,0.212,0.2158,0.2232,0.2269,0.2328,0.2355,0.2384,0.2377,0.2355,0.2438,0.2409,0.2349,0.2343,0.2273,0.2256,0.2308,0.2467,0.2467,0.2467,0.2467,0,0.1862,0.1878,0.1926,0.1936,0.1975,0.2016,0.207,0.2116,0.2197,0.2241,0.2295,0.2343,0.2388,0.2428,0.2421,0.2416,0.2477,0.2373,0.2364,0.2289,0.2274,0.2247,0.2233,0.2469,0.2469,0.2468,0.2468,0,0.1826,0.1858,0.1885,0.1943,0.1962,0.1985,0.2068,0.2109,0.2187,0.2254,0.228,0.2372,0.2411,0.2446,0.2494,0.2459,0.2406,0.2453,0.235,0.2326,0.2211,0.2202,0.2139,0.2075,0.2399,0.2397,0.2396,0,0.1807,0.1819,0.1875,0.1891,0.1915,0.1962,0.1998,0.209,0.2139,0.2255,0.2283,0.236,0.2386,0.2437,0.2415,0.2415,0.2362,0.2322,0.2258,0.2209,0.2195,0.2108,0.2053,0.2198,0.2195,0.2193,0.2191,0,0.1773,0.1795,0.1819,0.1852,0.1885,0.1921,0.1979,0.2023,0.2121,0.2171,0.2236,0.2273,0.2331,0.2295,0.2299,0.2282,0.2215,0.2272,0.2267,0.2082,0.1947,0.1879,0.2143,0.2171,0.2173,0.2175,0.2176,0.2177,0.1745,0.1749,0.178,0.1806,0.1836,0.1856,0.186,0.1924,0.1969,0.2017,0.212,0.2134,0.2182,0.2171,0.2146,0.2075,0.2063,0.2014,0.2022,0.1949,0.1838,0.204,0.202,0.2021,0.2022,0.2023,0.2024,0,0.1699,0.171,0.1733,0.1749,0.1745,0.1783,0.1822,0.1806,0.1801,0.1886,0.1912,0.195,0.1933,0.1967,0.1939,0.1864,0.1774,0.1819,0.1716,0.1685,0.1922,0.1864,0.1752,0.1752,0.1752,0.1752,0.1752,0.1752,0.1675,0.1668,0.1675,0.1645,0.1651,0.1604,0.1598,0.1586,0.1623,0.1627,0.165,0.1711,0.1845,0.1884,0.1825,0.1765,0.1652,0.1553,0.1562,0.1784,0.1804,0.1823,0.1767,0.1637,0.1636,0.1249,0.1246,0.1244]},{"header":{"parameterUnit":"m.s-1","parameterCategory":2,"la1":30.2991,"la2":30.254,"lo1":-89.0895,"lo2":-89.0444,"dy":0.0017,"dx":0.0017,"nx":28,"ny":28,"refTime":"2025-11-26T03:00:00:Z","depth":"0","parameterNumber":3,"parameterNumberName":"V-component_of_CURRENTS"},"data":[0,0,0,0,0,0,0,0,0,0,0,0,0,0,0,0,0,0,0,0,0,0,0,0,0,0,0,0,0,0,0,0,0,0,0,0,0,0,0,0,0,0,0,0,0,0,0,0,0,0,0,0,0,0,0,0,0,0,-0.0201,-0.0201,0,-0.0212,-0.0212,-0.0213,-0.0223,-0.0223,-0.0223,-0.0223,-0.0254,-0.0255,-0.0255,0,0,0,0,0,0,0,0,0,0,0,0,0,-0.0213,-0.0213,-0.0201,-0.0201,-0.0201,-0.0212,-0.0212,-0.0213,-0.0223,-0.0223,-0.0223,-0.0223,-0.0254,-0.0254,-0.0255,0,0,0,0,0,0,0,0,0,0,0,0,0,-0.0216,-0.0213,-0.0201,-0.0206,-0.0207,-0.0212,-0.0212,-0.0213,-0.0223,-0.0223,-0.0223,-0.0223,-0.0253,-0.0254,-0.0256,-0.0262,0,0,-0.0259,-0.026,0,0,0,0,0,0,0,0,-0.0215,-0.0215,-0.0206,-0.0206,-0.0207,-0.0215,-0.0228,-0.023,-0.0223,-0.0218,-0.0223,-0.0223,-0.0242,-0.0244,-0.0247,-0.0263,-0.0265,-0.0259,-0.026,-0.026,-0.0261,0,0,0,0,0,0,0,-0.0215,-0.0215,-0.0206,-0.0206,-0.0206,-0.0217,-0.0217,-0.0228,-0.0231,-0.0219,-0.0219,-0.0219,-0.0243,-0.0246,-0.0248,-0.0265,-0.0259,-0.026,-0.0261,-0.0261,-0.0291,-0.0291,0,0,0,0,0,0,-0.021,-0.0215,-0.0206,-0.0206,-0.021,-0.0217,-0.0217,-0.0213,-0.023,-0.0233,-0.0219,-0.0219,-0.0244,-0.0247,-0.0249,-0.0254,-0.026,-0.0262,-0.0262,-0.0291,-0.0291,-0.0291,0,0,0,0,0,0,-0.021,-0.0209,-0.0205,-0.021,-0.021,-0.0216,-0.0212,-0.0214,-0.0216,-0.023,-0.0233,-0.0219,-0.0244,-0.0248,-0.0256,-0.0256,-0.0262,-0.0263,-0.0291,-0.0291,-0.0291,-0.0267,0,0,0,0,0,0,-0.021,-0.0209,-0.0206,-0.021,-0.021,-0.0203,-0.0212,-0.0214,-0.0215,-0.0216,-0.0231,-0.0234,-0.0245,-0.0254,-0.0257,-0.0258,-0.0264,-0.029,-0.0291,-0.0291,-0.0267,-0.0266,-0.0265,0,0,0,0,0,-0.0211,-0.0204,-0.0206,-0.0205,-0.0205,-0.0203,-0.0204,-0.0209,-0.0215,-0.0213,-0.0224,-0.0234,-0.0257,-0.0255,-0.0259,-0.0259,-0.029,-0.0291,-0.0291,-0.0268,-0.0266,-0.0265,0,0,0,0,0,0,-0.0207,-0.0204,-0.0207,-0.0199,-0.0199,-0.0204,-0.0202,-0.0208,-0.0215,-0.0218,-0.0233,-0.0236,-0.0245,-0.0256,-0.0253,-0.0269,-0.0276,-0.0277,-0.0258,-0.0256,-0.0255,-0.024,-0.0265,0,0,0,0,0,-0.0205,-0.0199,-0.0199,-0.0193,-0.0192,-0.0198,-0.0198,-0.0202,-0.0208,-0.0211,-0.0222,-0.0236,-0.0249,-0.0254,-0.0267,-0.0274,-0.0278,-0.0277,-0.0276,-0.0275,-0.0265,-0.0277,-0.0275,-0.0291,-0.0291,-0.0291,0,0,-0.0202,-0.02,-0.0197,-0.0192,-0.0194,-0.0186,-0.0198,-0.0196,-0.0191,-0.0214,-0.0213,-0.0232,-0.025,-0.0258,-0.0263,-0.0266,-0.0272,-0.0275,-0.0274,-0.0265,-0.0277,-0.0275,-0.0274,-0.0291,-0.0291,-0.0291,0,0,-0.0187,-0.019,-0.0178,-0.0176,-0.0174,-0.0179,-0.0176,-0.018,-0.0182,-0.0186,-0.0203,-0.0218,-0.0235,-0.0247,-0.0256,-0.0255,-0.0266,-0.0263,-0.0242,-0.0254,-0.0252,-0.0251,-0.0251,-0.025,-0.0261,-0.0261,-0.0261,0,-0.0182,-0.0167,-0.0175,-0.0162,-0.0156,-0.0172,-0.0157,-0.0164,-0.017,-0.0168,-0.0182,-0.0207,-0.0228,-0.0235,-0.0239,-0.0251,-0.0255,-0.0246,-0.0251,-0.025,-0.0249,-0.0249,-0.0248,-0.026,-0.026,-0.026,-0.0261,0,-0.0156,-0.0145,-0.0138,-0.0127,-0.0125,-0.0116,-0.0122,-0.0122,-0.0133,-0.0138,-0.0148,-0.0178,-0.019,-0.0206,-0.0224,-0.0229,-0.0232,-0.0249,-0.0253,-0.0246,-0.0247,-0.0246,-0.0259,-0.0259,-0.0259,-0.026,0,0,-0.0131,-0.0121,-0.0116,-0.0101,-0.0105,-0.0094,-0.0092,-0.0086,-0.0072,-0.0098,-0.0085,-0.0126,-0.0143,-0.0155,-0.0183,-0.0199,-0.0204,-0.022,-0.0221,-0.0213,-0.0219,-0.0217,-0.0216,-0.0222,-0.0222,-0.0222,-0.022,0,-0.0104,-0.0071,-0.0077,-0.0047,-0.0028,-0.0042,-0.0035,-0.0036,-0.0041,-0.0035,-0.0074,-0.0079,-0.0124,-0.013,-0.0154,-0.0187,-0.0202,-0.0202,-0.0231,-0.0231,-0.0226,-0.0215,-0.0208,-0.0206,-0.022,-0.022,-0.0219,0,-0.0066,-0.005,-0.0017,0.0004,0.0011,0.002,0.004,0.0047,0.0042,0.0036,0.0019,-0.001,-0.0038,-0.008,-0.0131,-0.0128,-0.0169,-0.0201,-0.0202,-0.0206,-0.0228,-0.0216,-0.0205,-0.03,-0.0219,-0.0219,-0.0219,0,-0.0028,-0.0001,0.0027,0.0034,0.0048,0.006,0.0067,0.007,0.0095,0.0085,0.01,0.0053,0.0044,-0.0021,-0.0091,-0.011,-0.0142,-0.0175,-0.0211,-0.0211,-0.0213,-0.0213,-0.029,-0.0211,-0.0211,-0.0211,-0.0211,0,0.0013,0.004,0.0049,0.0067,0.0109,0.01,0.0144,0.0145,0.0161,0.0202,0.0141,0.0166,0.0058,0.0024,-0.0058,-0.0121,-0.0116,-0.0198,-0.021,-0.0204,-0.0204,-0.0293,-0.036,-0.0211,-0.0211,-0.0211,-0.0211,0,0.0056,0.0058,0.0099,0.0118,0.0129,0.0161,0.0202,0.024,0.0238,0.0292,0.0291,0.0262,0.0217,0.0113,0.0022,-0.0061,-0.0191,-0.0163,-0.0143,-0.0153,-0.0284,-0.0349,-0.0424,-0.0482,-0.0201,-0.0201,-0.0201,0,0.0081,0.0105,0.0144,0.0176,0.0188,0.0231,0.0268,0.0279,0.0331,0.0363,0.0403,0.0367,0.0368,0.0235,0.0075,-0.006,-0.0172,-0.0149,-0.0193,-0.0281,-0.0363,-0.0402,-0.0449,-0.0184,-0.0184,-0.0184,-0.0183,0,0.0134,0.0144,0.0178,0.0243,0.0288,0.0344,0.0401,0.0453,0.048,0.0525,0.0587,0.0585,0.0451,0.0323,0.012,0.0013,-0.0225,-0.015,-0.0252,-0.036,-0.0398,-0.0462,-0.019,-0.0182,-0.0182,-0.0182,-0.0182,-0.0182,0.0176,0.0209,0.0255,0.0321,0.0376,0.0455,0.0516,0.0585,0.0671,0.0744,0.0733,0.0748,0.0531,0.0262,0.0103,-0.0193,-0.0214,-0.0289,-0.036,-0.0389,-0.0454,-0.017,-0.0173,-0.0173,-0.0173,-0.0173,-0.0173,0,0.0231,0.0268,0.0333,0.0409,0.0484,0.05,0.0607,0.0673,0.0785,0.0842,0.0887,0.0784,0.0534,0.025,-0.0145,-0.0358,-0.0453,-0.0487,-0.0554,-0.0594,-0.0344,-0.0352,-0.0382,-0.0382,-0.0382,-0.0382,-0.0381,-0.0381,0.0261,0.0329,0.036,0.0489,0.0549,0.0651,0.0716,0.0812,0.0878,0.0946,0.0943,0.091,0.0678,0.0017,-0.0445,-0.0566,-0.0745,-0.0772,-0.0868,-0.0712,-0.07,-0.0687,-0.0711,-0.0815,-0.0815,-0.1082,-0.1085,-0.1087]}],[{"header":{"parameterUnit":"m.s-1","parameterCategory":2,"la1":30.2991,"la2":30.254,"lo1":-89.0895,"lo2":-89.0444,"dy":0.0017,"dx":0.0017,"nx":28,"ny":28,"refTime":"2025-11-26T03:00:00:Z","depth":"2","parameterNumber":2,"parameterNumberName":"U-component_of_CURRENTS"},"data":[0,0,0,0,0,0,0,0,0,0,0,0,0,0,0,0,0,0,0,0,0,0,0,0,0,0,0,0,0,0,0,0,0,0,0,0,0,0,0,0,0,0,0,0,0,0,0,0,0,0,0,0,0,0,0,0,0,0,0.1682,0.1682,0,0.1665,0.1665,0.1665,0.1647,0.1647,0.1647,0.1647,0.1632,0.1632,0.1631,0,0,0,0,0,0,0,0,0,0,0,0,0,0.1697,0.1696,0.1682,0.1682,0.1682,0.1665,0.1665,0.1665,0.1647,0.1647,0.1647,0.1647,0.1632,0.1632,0.1631,0,0,0,0,0,0,0,0,0,0,0,0,0,0.1685,0.1696,0.1682,0.1672,0.1671,0.1666,0.1665,0.1665,0.1647,0.1647,0.1647,0.1647,0.1632,0.1632,0.1631,0.1633,0,0,0.163,0.163,0,0,0,0,0,0,0,0,0.1686,0.1684,0.1673,0.1672,0.1671,0.1659,0.1665,0.1654,0.1647,0.1655,0.1647,0.1647,0.1642,0.1641,0.1636,0.1632,0.1631,0.163,0.163,0.163,0.1629,0,0,0,0,0,0,0,0.1686,0.1685,0.1674,0.1673,0.1672,0.1668,0.1666,0.1663,0.1649,0.1654,0.1653,0.1654,0.1641,0.1637,0.1636,0.1631,0.163,0.163,0.1629,0.1629,0.1666,0.1668,0,0,0,0,0,0,0.1691,0.1686,0.1674,0.1674,0.168,0.1668,0.1666,0.1662,0.1649,0.1647,0.1654,0.1653,0.1638,0.1636,0.1635,0.1674,0.163,0.1629,0.1629,0.1665,0.1667,0.1668,0,0,0,0,0,0,0.1692,0.169,0.1675,0.168,0.1678,0.1668,0.1664,0.1662,0.1665,0.1649,0.1646,0.166,0.1637,0.1636,0.1645,0.1672,0.1629,0.1629,0.1664,0.1666,0.1667,0.1728,0,0,0,0,0,0,0.1692,0.169,0.1695,0.1681,0.1678,0.1681,0.1665,0.1662,0.1666,0.1665,0.1654,0.1651,0.1637,0.1646,0.1645,0.1671,0.1628,0.1662,0.1665,0.1667,0.1725,0.1732,0.1738,0,0,0,0,0,0.1693,0.1696,0.1695,0.1694,0.1683,0.1681,0.168,0.1671,0.1667,0.1672,0.1668,0.1652,0.166,0.1646,0.1645,0.1672,0.1661,0.1664,0.1667,0.1722,0.1731,0.1738,0,0,0,0,0,0,0.1702,0.1695,0.1693,0.1693,0.1693,0.1679,0.1685,0.1679,0.1679,0.1681,0.1664,0.1662,0.1683,0.1668,0.1654,0.169,0.166,0.1662,0.1702,0.1711,0.1717,0.1727,0.1628,0,0,0,0,0,0.1708,0.1711,0.1703,0.1707,0.1709,0.17,0.17,0.1696,0.1692,0.1691,0.1684,0.1683,0.1692,0.1693,0.1694,0.171,0.1713,0.1728,0.1735,0.174,0.1748,0.1786,0.1797,0.1677,0.1677,0.1677,0,0,0.1712,0.171,0.1711,0.171,0.1709,0.1717,0.17,0.1706,0.1716,0.1691,0.1705,0.1706,0.1702,0.1723,0.1731,0.1714,0.1776,0.1744,0.1749,0.1754,0.179,0.1801,0.1812,0.1679,0.1679,0.1678,0,0,0.1723,0.1722,0.1729,0.1734,0.1738,0.1736,0.1742,0.1737,0.174,0.1753,0.1746,0.1765,0.1763,0.1774,0.1778,0.1823,0.1812,0.1823,0.1863,0.19,0.191,0.1919,0.1938,0.1948,0.1824,0.1824,0.1824,0,0.1729,0.1735,0.1733,0.1743,0.1752,0.1748,0.1762,0.1766,0.1765,0.1781,0.1766,0.1801,0.1792,0.1836,0.1849,0.184,0.1851,0.1832,0.1909,0.1918,0.1927,0.1944,0.1955,0.1828,0.1827,0.1827,0.1827,0,0.1743,0.1753,0.1761,0.1774,0.1785,0.1796,0.1804,0.1821,0.1826,0.1832,0.1875,0.1873,0.1895,0.19,0.1884,0.1945,0.193,0.1916,0.1889,0.1943,0.1957,0.1967,0.1832,0.1831,0.183,0.1829,0,0,0.1736,0.1764,0.1767,0.1781,0.1803,0.181,0.1846,0.1874,0.1903,0.1916,0.1959,0.198,0.1984,0.1989,0.1985,0.2013,0.2074,0.1989,0.199,0.2009,0.2149,0.2071,0.2073,0.2076,0.2078,0.2079,0.2136,0,0.1747,0.1771,0.1788,0.1818,0.1831,0.1855,0.1886,0.1917,0.1942,0.1982,0.2008,0.2041,0.2017,0.2034,0.2063,0.2073,0.2104,0.206,0.2094,0.2094,0.202,0.2084,0.1905,0.1934,0.2145,0.2147,0.2148,0,0.175,0.1768,0.1798,0.1841,0.1851,0.1874,0.1933,0.1961,0.2024,0.2049,0.2099,0.2111,0.2163,0.2129,0.2189,0.2163,0.2163,0.2167,0.2169,0.2081,0.2035,0.1916,0.1944,0.2164,0.2163,0.2162,0.2161,0,0.1732,0.1774,0.1799,0.1811,0.186,0.189,0.1922,0.1984,0.2023,0.2098,0.2135,0.2193,0.2226,0.225,0.2245,0.2228,0.23,0.2276,0.2211,0.2205,0.2051,0.2028,0.2326,0.2326,0.2326,0.2326,0.2326,0,0.1727,0.1746,0.1794,0.1804,0.1845,0.1885,0.1942,0.1987,0.2066,0.211,0.2164,0.2206,0.2258,0.2293,0.2284,0.2275,0.2334,0.2233,0.2223,0.2066,0.2044,0.2236,0.2225,0.2328,0.2328,0.2327,0.2327,0,0.1697,0.1727,0.1756,0.1813,0.1834,0.1862,0.1946,0.1987,0.2065,0.213,0.2157,0.2242,0.2278,0.231,0.2352,0.2317,0.2319,0.2299,0.2102,0.2066,0.2191,0.2182,0.2246,0.2244,0.2242,0.2241,0.2239,0,0.168,0.1693,0.1751,0.1769,0.1795,0.1848,0.1884,0.1975,0.202,0.213,0.2154,0.2229,0.2245,0.2285,0.2251,0.2239,0.2285,0.2059,0.1992,0.2204,0.2187,0.2181,0.2175,0.1816,0.1811,0.1807,0.1804,0,0.165,0.1674,0.1697,0.1735,0.1771,0.1809,0.1868,0.1905,0.1999,0.2046,0.2097,0.2125,0.2167,0.2071,0.2066,0.2031,0.2046,0.1981,0.2274,0.1856,0.1801,0.1783,0.1791,0.1771,0.1774,0.1776,0.1778,0.178,0.1626,0.1632,0.1664,0.1692,0.1727,0.1745,0.1748,0.1804,0.1842,0.1873,0.1964,0.1931,0.1949,0.184,0.1775,0.1724,0.1865,0.1768,0.1779,0.1794,0.1727,0.1671,0.1603,0.1606,0.1608,0.1609,0.1611,0,0.1583,0.1596,0.1619,0.1636,0.1634,0.168,0.1711,0.1684,0.1668,0.1714,0.1725,0.1569,0.1502,0.1518,0.139,0.1384,0.137,0.1319,0.1284,0.1318,0.1349,0.1258,0.1011,0.1009,0.1007,0.1005,0,0,0.1561,0.1554,0.1559,0.153,0.1543,0.1501,0.1494,0.1458,0.1458,0.1398,0.1359,0.1448,0.1484,0.1233,0.1196,0.1081,0.1195,0.1038,0.1521,0.1516,0.1545,0.1612,0.1512,0,0,0,0,0]},{"header":{"parameterUnit":"m.s-1","parameterCategory":2,"la1":30.2991,"la2":30.254,"lo1":-89.0895,"lo2":-89.0444,"dy":0.0017,"dx":0.0017,"nx":28,"ny":28,"refTime":"2025-11-26T03:00:00:Z","depth":"2","parameterNumber":3,"parameterNumberName":"V-component_of_CURRENTS"},"data":[0,0,0,0,0,0,0,0,0,0,0,0,0,0,0,0,0,0,0,0,0,0,0,0,0,0,0,0,0,0,0,0,0,0,0,0,0,0,0,0,0,0,0,0,0,0,0,0,0,0,0,0,0,0,0,0,0,0,-0.0006,-0.0006,0,-0.0023,-0.0023,-0.0023,-0.0043,-0.0044,-0.0044,-0.0044,-0.0078,-0.0079,-0.0079,0,0,0,0,0,0,0,0,0,0,0,0,0,-0.0016,-0.0015,-0.0006,-0.0006,-0.0007,-0.0023,-0.0023,-0.0024,-0.0043,-0.0044,-0.0044,-0.0044,-0.0078,-0.0079,-0.0079,0,0,0,0,0,0,0,0,0,0,0,0,0,-0.002,-0.0015,-0.0006,-0.0018,-0.0019,-0.0023,-0.0023,-0.0024,-0.0043,-0.0044,-0.0044,-0.0044,-0.0078,-0.0079,-0.008,-0.0078,0,0,-0.0083,-0.0083,0,0,0,0,0,0,0,0,-0.002,-0.002,-0.0016,-0.0017,-0.0019,-0.0031,-0.0039,-0.0042,-0.0043,-0.0035,-0.0044,-0.0045,-0.0063,-0.0065,-0.0068,-0.008,-0.0081,-0.0083,-0.0083,-0.0084,-0.0084,0,0,0,0,0,0,0,-0.002,-0.002,-0.0014,-0.0016,-0.0018,-0.0031,-0.0032,-0.004,-0.0047,-0.0035,-0.0037,-0.0038,-0.0064,-0.0067,-0.0069,-0.0082,-0.0083,-0.0084,-0.0084,-0.0085,-0.0104,-0.0104,0,0,0,0,0,0,-0.0015,-0.0019,-0.0013,-0.0014,-0.002,-0.003,-0.0031,-0.0027,-0.0047,-0.005,-0.0037,-0.0038,-0.0065,-0.0068,-0.0071,-0.0076,-0.0084,-0.0085,-0.0085,-0.0104,-0.0104,-0.0104,0,0,0,0,0,0,-0.0015,-0.0014,-0.0012,-0.0017,-0.0018,-0.0029,-0.0025,-0.0027,-0.0034,-0.0048,-0.0052,-0.0042,-0.0066,-0.0069,-0.0078,-0.0077,-0.0085,-0.0086,-0.0105,-0.0104,-0.0104,-0.0082,0,0,0,0,0,0,-0.0015,-0.0014,-0.0012,-0.0016,-0.0017,-0.0012,-0.0024,-0.0027,-0.0034,-0.0036,-0.0053,-0.0057,-0.0066,-0.0076,-0.0079,-0.0078,-0.0087,-0.0105,-0.0105,-0.0104,-0.0083,-0.0081,-0.008,0,0,0,0,0,-0.0015,-0.0007,-0.0012,-0.0012,-0.0014,-0.0011,-0.0013,-0.0023,-0.0034,-0.0032,-0.0046,-0.0057,-0.0078,-0.0077,-0.008,-0.008,-0.0105,-0.0105,-0.0104,-0.0084,-0.0082,-0.008,0,0,0,0,0,0,-0.0011,-0.0009,-0.0014,-0.0006,-0.0009,-0.0014,-0.0015,-0.0024,-0.0034,-0.0039,-0.0054,-0.0058,-0.0066,-0.0075,-0.0075,-0.0085,-0.0093,-0.0094,-0.0077,-0.0075,-0.0073,-0.0061,-0.0088,0,0,0,0,0,-0.0009,-0.0004,-0.0005,-0.0,0.0,-0.0009,-0.0012,-0.0018,-0.0026,-0.0031,-0.0043,-0.0057,-0.0067,-0.0073,-0.0083,-0.0087,-0.0093,-0.009,-0.0088,-0.0087,-0.0079,-0.0087,-0.0086,-0.0104,-0.0104,-0.0104,0,0,-0.0007,-0.0005,-0.0003,0.0001,-0.0003,0.0005,-0.0012,-0.0013,-0.0008,-0.0033,-0.0035,-0.0053,-0.0067,-0.0073,-0.0077,-0.008,-0.0085,-0.0086,-0.0085,-0.0078,-0.0087,-0.0085,-0.0083,-0.0104,-0.0104,-0.0104,0,0,0.0007,0.0002,0.0014,0.0016,0.0014,0.001,0.001,0.0004,-0.0002,-0.0006,-0.0023,-0.0038,-0.0053,-0.0061,-0.0068,-0.0063,-0.0077,-0.0071,-0.0052,-0.0061,-0.0059,-0.0058,-0.0064,-0.0064,-0.0069,-0.0069,-0.0069,0,0.0009,0.0026,0.0017,0.003,0.0035,0.0015,0.003,0.0024,0.0014,0.0015,-0.0003,-0.0025,-0.0044,-0.0044,-0.0048,-0.0058,-0.0066,-0.0058,-0.0058,-0.0057,-0.0056,-0.0063,-0.0063,-0.0068,-0.0068,-0.0068,-0.0069,0,0.0036,0.0047,0.0054,0.0065,0.0067,0.0075,0.0069,0.0067,0.0052,0.0046,0.0038,0.0009,-0.0002,-0.0016,-0.0034,-0.0036,-0.0045,-0.0056,-0.0061,-0.0052,-0.0061,-0.0061,-0.0067,-0.0067,-0.0067,-0.0068,0,0,0.0055,0.0071,0.0074,0.0089,0.0088,0.0097,0.0101,0.0108,0.0122,0.0092,0.0105,0.0068,0.0046,0.0037,0.001,-0.0005,-0.0015,-0.0029,-0.003,-0.0032,-0.0033,-0.0039,-0.004,-0.0028,-0.0028,-0.0027,-0.0041,0,0.0082,0.0117,0.0115,0.0146,0.0165,0.0151,0.0162,0.0161,0.0154,0.0159,0.0121,0.0115,0.0069,0.0059,0.0037,0.0002,-0.0013,-0.001,-0.0043,-0.0044,-0.0048,-0.004,-0.0028,-0.0039,-0.0042,-0.0042,-0.0042,0,0.0117,0.0136,0.0171,0.0197,0.0204,0.0213,0.0234,0.0243,0.0239,0.0232,0.0213,0.0182,0.0152,0.0109,0.0057,0.006,0.0015,-0.0016,-0.0018,-0.003,-0.0051,-0.0048,-0.0039,-0.0042,-0.0042,-0.0042,-0.0042,0,0.0148,0.018,0.021,0.0218,0.0238,0.0249,0.0257,0.0263,0.0288,0.0276,0.0288,0.0242,0.0227,0.0164,0.0085,0.0071,0.0031,0.0005,-0.0041,-0.0042,-0.0039,-0.004,-0.003,-0.003,-0.003,-0.003,-0.003,0,0.0186,0.0212,0.0226,0.0245,0.0287,0.0282,0.0326,0.0329,0.0346,0.0386,0.0325,0.0346,0.0238,0.0198,0.0115,0.0043,0.0054,-0.0031,-0.0044,-0.0032,-0.0032,-0.0041,-0.0043,-0.003,-0.003,-0.003,-0.003,0,0.022,0.0227,0.0268,0.0292,0.0304,0.0333,0.0377,0.0416,0.0414,0.0464,0.046,0.0428,0.0371,0.0266,0.0173,0.0096,0.0017,-0.0013,0.0007,-0.0003,-0.0059,-0.0058,-0.0064,-0.0064,-0.0064,-0.0064,-0.0065,0,0.0243,0.0266,0.0307,0.0339,0.035,0.0393,0.0431,0.0448,0.0499,0.0526,0.0562,0.0513,0.05,0.0357,0.0202,0.0061,0.0033,-0.0018,-0.0048,-0.0049,-0.0061,-0.006,-0.006,-0.0038,-0.0038,-0.0038,-0.0038,0,0.0289,0.0298,0.0333,0.0396,0.0439,0.0499,0.0554,0.0605,0.0635,0.067,0.0717,0.0702,0.0557,0.0418,0.0213,0.0117,0.0001,-0.0021,-0.0019,-0.0032,-0.0026,-0.0037,-0.0038,-0.0037,-0.0037,-0.0037,-0.0037,-0.0037,0.0324,0.0357,0.0401,0.0465,0.0519,0.0597,0.0656,0.072,0.0797,0.0849,0.0834,0.0805,0.0636,0.0375,0.0203,0.001,0.0014,-0.0055,-0.0055,-0.0054,-0.0049,-0.0045,-0.0058,-0.0058,-0.0058,-0.0059,-0.0059,0,0.0372,0.0408,0.047,0.0545,0.0615,0.0632,0.0736,0.0795,0.0888,0.0914,0.0933,0.0779,0.0613,0.0411,0.0127,-0.0032,-0.0049,-0.0084,-0.0073,-0.0071,-0.0071,-0.0067,-0.008,-0.0081,-0.0081,-0.0082,0,0,0.0398,0.0463,0.0494,0.0613,0.0668,0.0764,0.0825,0.0905,0.0946,0.0979,0.095,0.0896,0.0661,0.0454,0.0233,0.0071,0.0036,0.0041,0.0076,0.0117,0.0119,-0.0036,-0.0026,0,0,0,0,0]}],[{"header":{"parameterUnit":"m.s-1","parameterCategory":2,"la1":30.2991,"la2":30.254,"lo1":-89.0895,"lo2":-89.0444,"dy":0.0017,"dx":0.0017,"nx":28,"ny":28,"refTime":"2025-11-26T03:00:00:Z","depth":"4","parameterNumber":2,"parameterNumberName":"U-component_of_CURRENTS"},"data":[0,0,0,0,0,0,0,0,0,0,0,0,0,0,0,0,0,0,0,0,0,0,0,0,0,0,0,0,0,0,0,0,0,0,0,0,0,0,0,0,0,0,0,0,0,0,0,0,0,0,0,0,0,0,0,0,0,0,0.0925,0.0926,0,0.0966,0.0967,0.0967,0.1,0.1001,0.1001,0.1002,0.1038,0.1039,0.1039,0,0,0,0,0,0,0,0,0,0,0,0,0,0.0884,0.0884,0.0925,0.0926,0.0927,0.0966,0.0967,0.0967,0.1,0.1001,0.1001,0.1002,0.1038,0.1038,0.1039,0,0,0,0,0,0,0,0,0,0,0,0,0,0.091,0.0885,0.0925,0.0949,0.0952,0.0966,0.0967,0.0967,0.1,0.1001,0.1001,0.1002,0.1038,0.1038,0.1039,0.1029,0,0,0.1042,0.1042,0,0,0,0,0,0,0,0,0.0908,0.0911,0.0945,0.0947,0.095,0.098,0.0966,0.0988,0.1,0.098,0.1002,0.1002,0.1019,0.1021,0.1025,0.1031,0.1033,0.1042,0.1042,0.1042,0.1043,0,0,0,0,0,0,0,0.0906,0.0909,0.094,0.0945,0.0949,0.0961,0.0965,0.097,0.0994,0.0982,0.0985,0.0991,0.102,0.1024,0.1026,0.1033,0.1042,0.1042,0.1043,0.1043,0.1108,0.1109,0,0,0,0,0,0,0.0903,0.0908,0.0939,0.0941,0.0932,0.0961,0.0965,0.0969,0.0994,0.0999,0.0991,0.0993,0.1023,0.1025,0.1028,0.108,0.1042,0.1043,0.1044,0.1107,0.1108,0.111,0,0,0,0,0,0,0.0902,0.0905,0.0937,0.0927,0.0932,0.0961,0.0964,0.0969,0.0998,0.1001,0.1006,0.1018,0.1023,0.1027,0.1055,0.1079,0.1043,0.1044,0.1105,0.1107,0.1109,0.1145,0,0,0,0,0,0,0.09,0.0904,0.0918,0.0926,0.0932,0.0961,0.0964,0.0969,0.1,0.1004,0.1025,0.1028,0.1024,0.1054,0.1056,0.108,0.1045,0.1104,0.1106,0.1108,0.1142,0.1148,0.1153,0,0,0,0,0,0.0899,0.0907,0.0918,0.0922,0.0945,0.0962,0.0966,0.0988,0.1001,0.1017,0.1034,0.1028,0.1071,0.1056,0.1057,0.1082,0.1102,0.1105,0.1108,0.114,0.1147,0.1153,0,0,0,0,0,0,0.0898,0.0912,0.0923,0.0938,0.0958,0.0969,0.0988,0.1002,0.1027,0.1038,0.104,0.1044,0.1079,0.1077,0.106,0.1109,0.1087,0.1091,0.1111,0.1117,0.1123,0.1127,0.1045,0,0,0,0,0,0.0903,0.0915,0.0931,0.0946,0.0958,0.0978,0.0993,0.1008,0.1026,0.104,0.1054,0.1072,0.1088,0.11,0.1112,0.1135,0.1141,0.1155,0.116,0.1164,0.117,0.1201,0.121,0.1119,0.1119,0.1119,0,0,0.0908,0.0918,0.0927,0.0948,0.0966,0.0984,0.099,0.1019,0.1039,0.1038,0.1078,0.1092,0.1099,0.1128,0.1144,0.1132,0.1194,0.1168,0.1172,0.1175,0.1205,0.1214,0.1222,0.1121,0.112,0.112,0,0,0.0917,0.0934,0.0947,0.0964,0.0995,0.1006,0.102,0.1046,0.1067,0.1102,0.1108,0.1138,0.1163,0.1173,0.1179,0.1221,0.1221,0.1231,0.126,0.129,0.1298,0.1305,0.1325,0.1334,0.1233,0.1233,0.1233,0,0.0927,0.094,0.0955,0.0972,0.099,0.1018,0.1038,0.106,0.1095,0.1116,0.1123,0.1178,0.1183,0.1217,0.1233,0.1232,0.1249,0.1233,0.1297,0.1304,0.131,0.1329,0.1338,0.1235,0.1235,0.1234,0.1234,0,0.0937,0.0959,0.097,0.0998,0.102,0.1043,0.1071,0.1104,0.1136,0.1157,0.1212,0.1226,0.126,0.1268,0.1263,0.1313,0.131,0.1299,0.1278,0.1321,0.1339,0.1347,0.1238,0.1237,0.1237,0.1236,0,0,0.0933,0.097,0.0978,0.0993,0.1037,0.105,0.1095,0.1136,0.1172,0.1215,0.1261,0.1295,0.1317,0.1326,0.1332,0.1357,0.1411,0.1352,0.1353,0.1369,0.1482,0.1371,0.1369,0.1417,0.1419,0.142,0.1477,0,0.0943,0.0971,0.0991,0.1026,0.1041,0.1081,0.1117,0.1161,0.1206,0.1256,0.1292,0.1338,0.1334,0.1362,0.1388,0.1407,0.1436,0.1397,0.1442,0.1443,0.1336,0.1376,0.1425,0.1483,0.1485,0.1486,0.1487,0,0.0945,0.0963,0.0996,0.1036,0.1049,0.108,0.1145,0.1183,0.1257,0.1295,0.1355,0.1384,0.1438,0.1426,0.149,0.147,0.1484,0.1493,0.1496,0.1384,0.1347,0.1432,0.1502,0.1501,0.15,0.1499,0.1498,0,0.0921,0.0965,0.0991,0.1005,0.1058,0.1091,0.1131,0.1203,0.1245,0.1333,0.1376,0.1439,0.1485,0.1517,0.1542,0.1529,0.1603,0.1581,0.1496,0.1488,0.1555,0.1547,0.1629,0.1629,0.1628,0.1628,0.1628,0,0.0908,0.0931,0.0987,0.0998,0.1041,0.1086,0.1147,0.1199,0.1281,0.1331,0.1401,0.1447,0.1515,0.156,0.1569,0.1556,0.1629,0.1507,0.1497,0.1569,0.1562,0.156,0.1552,0.163,0.163,0.1629,0.1629,0,0.0875,0.0912,0.0943,0.1005,0.1031,0.1066,0.1155,0.1192,0.1281,0.1352,0.1386,0.1478,0.1531,0.1576,0.163,0.1581,0.1583,0.1561,0.1643,0.1635,0.1442,0.1435,0.1467,0.1464,0.1461,0.1458,0.1456,0,0.0857,0.0871,0.0943,0.0968,0.1002,0.1062,0.1102,0.1191,0.123,0.1356,0.1378,0.1469,0.1516,0.1508,0.1557,0.1564,0.1543,0.1532,0.1475,0.144,0.1427,0.1425,0.1422,0.1452,0.1451,0.145,0.145,0,0.0822,0.0859,0.0885,0.0937,0.0981,0.1021,0.1086,0.1107,0.1207,0.1296,0.1341,0.1368,0.1421,0.1447,0.1464,0.1464,0.1528,0.1501,0.1506,0.1453,0.1422,0.1411,0.1412,0.1439,0.1441,0.1442,0.1442,0,0.0802,0.0811,0.0854,0.0892,0.0944,0.0963,0.1002,0.1044,0.1094,0.1224,0.1239,0.1328,0.1414,0.1397,0.1413,0.1402,0.1373,0.1317,0.1331,0.1343,0.1271,0.121,0.116,0,0,0,0,0,0.0776,0.0777,0.0804,0.0834,0.0881,0.0912,0.0981,0.1019,0.1115,0.1116,0.1174,0.1215,0.1239,0.1285,0.1246,0.1346,0.1373,0.1293,0.1315,0.1384,0.1396,0.132,0,0,0,0,0,0,0.0755,0.0778,0.078,0.0779,0.0791,0.0829,0.087,0.0932,0.0935,0.104,0.1062,0.1137,0.1181,0.1254,0.1225,0.1236,0.1221,0.1348,0.1344,0.1377,0.1388,0.1397,0.1323,0,0,0,0,0]},{"header":{"parameterUnit":"m.s-1","parameterCategory":2,"la1":30.2991,"la2":30.254,"lo1":-89.0895,"lo2":-89.0444,"dy":0.0017,"dx":0.0017,"nx":28,"ny":28,"refTime":"2025-11-26T03:00:00:Z","depth":"4","parameterNumber":3,"parameterNumberName":"V-component_of_CURRENTS"},"data":[0,0,0,0,0,0,0,0,0,0,0,0,0,0,0,0,0,0,0,0,0,0,0,0,0,0,0,0,0,0,0,0,0,0,0,0,0,0,0,0,0,0,0,0,0,0,0,0,0,0,0,0,0,0,0,0,0,0,0.0217,0.0217,0,0.0203,0.0203,0.0202,0.0191,0.0191,0.0191,0.0191,0.0178,0.0177,0.0177,0,0,0,0,0,0,0,0,0,0,0,0,0,0.021,0.021,0.0217,0.0217,0.0217,0.0203,0.0203,0.0202,0.0191,0.0191,0.0191,0.0191,0.0178,0.0177,0.0177,0,0,0,0,0,0,0,0,0,0,0,0,0,0.0206,0.0211,0.0217,0.0209,0.0209,0.0203,0.0203,0.0202,0.0192,0.0191,0.0191,0.0191,0.0178,0.0177,0.0177,0.0178,0,0,0.0176,0.0176,0,0,0,0,0,0,0,0,0.0207,0.0207,0.0211,0.021,0.0209,0.0199,0.0195,0.0194,0.0192,0.0198,0.0191,0.0191,0.0185,0.0184,0.0182,0.0178,0.0177,0.0176,0.0176,0.0176,0.0175,0,0,0,0,0,0,0,0.0207,0.0207,0.0212,0.0211,0.0209,0.0198,0.0198,0.0195,0.0193,0.0198,0.0197,0.0195,0.0184,0.0182,0.0181,0.0177,0.0176,0.0176,0.0175,0.0175,0.0178,0.0179,0,0,0,0,0,0,0.021,0.0208,0.0212,0.0211,0.0207,0.0199,0.0198,0.0202,0.0193,0.0191,0.0195,0.0194,0.0183,0.0182,0.0181,0.0194,0.0176,0.0175,0.0175,0.0178,0.0178,0.0179,0,0,0,0,0,0,0.021,0.0211,0.0213,0.0208,0.0208,0.0199,0.0204,0.0202,0.02,0.0191,0.0189,0.0195,0.0183,0.0181,0.0182,0.0193,0.0175,0.0175,0.0178,0.0178,0.0179,0.0213,0,0,0,0,0,0,0.021,0.0211,0.0216,0.0209,0.0208,0.0213,0.0204,0.0202,0.0199,0.0198,0.019,0.0189,0.0182,0.0183,0.0182,0.0192,0.0174,0.0177,0.0178,0.0179,0.0211,0.0214,0.0217,0,0,0,0,0,0.021,0.0219,0.0217,0.0217,0.0215,0.0213,0.0212,0.0205,0.0199,0.0202,0.0196,0.0189,0.0185,0.0183,0.0181,0.0192,0.0177,0.0178,0.0178,0.021,0.0214,0.0217,0,0,0,0,0,0,0.0217,0.0218,0.0216,0.0224,0.022,0.0211,0.0213,0.0206,0.0204,0.0203,0.0193,0.0191,0.0197,0.0188,0.0185,0.0194,0.018,0.018,0.0204,0.0208,0.0211,0.0214,0.0174,0,0,0,0,0,0.0221,0.0229,0.0225,0.0231,0.023,0.0222,0.022,0.0214,0.021,0.0208,0.0203,0.0198,0.0199,0.0198,0.0195,0.02,0.0183,0.0205,0.0208,0.0211,0.0213,0.0201,0.0203,0.0181,0.0181,0.0181,0,0,0.0225,0.0227,0.0231,0.0233,0.0229,0.0235,0.022,0.0219,0.0226,0.0207,0.0215,0.0208,0.0202,0.0209,0.021,0.0203,0.0206,0.0212,0.0214,0.0214,0.0202,0.0204,0.0206,0.0182,0.0181,0.0181,0,0,0.0238,0.0239,0.025,0.025,0.0248,0.0244,0.0244,0.0238,0.0238,0.0242,0.0233,0.0232,0.023,0.023,0.0229,0.0246,0.0222,0.0243,0.0261,0.0251,0.0252,0.0254,0.0226,0.0224,0.0244,0.0244,0.0244,0,0.0242,0.0257,0.0252,0.0261,0.0267,0.025,0.0263,0.026,0.0255,0.0261,0.0249,0.0249,0.0242,0.0255,0.0259,0.0253,0.0235,0.025,0.0255,0.0256,0.0256,0.0227,0.0225,0.0246,0.0246,0.0246,0.0245,0,0.0262,0.0275,0.0281,0.0291,0.0295,0.0302,0.0299,0.0302,0.0297,0.0296,0.0303,0.029,0.029,0.0287,0.0278,0.0284,0.0263,0.026,0.0247,0.0261,0.0229,0.0226,0.0249,0.0248,0.0247,0.0247,0,0,0.027,0.0292,0.0295,0.031,0.0314,0.0321,0.0333,0.0343,0.0357,0.0344,0.0358,0.0353,0.0339,0.0337,0.0323,0.031,0.0295,0.0287,0.0286,0.0261,0.0255,0.0229,0.0223,0.0291,0.0291,0.0291,0.0227,0,0.0289,0.0319,0.0324,0.0354,0.037,0.0368,0.0384,0.039,0.039,0.0397,0.038,0.0385,0.0361,0.0359,0.0344,0.031,0.0291,0.0312,0.0244,0.0242,0.0218,0.0221,0.0291,0.0225,0.0225,0.0224,0.0224,0,0.0307,0.0328,0.0362,0.0396,0.0404,0.0419,0.0446,0.0459,0.0462,0.0461,0.0455,0.0434,0.0416,0.0391,0.0336,0.0349,0.0304,0.0272,0.0269,0.0232,0.0211,0.021,0.0219,0.0219,0.0219,0.022,0.022,0,0.0321,0.0356,0.0389,0.0399,0.043,0.045,0.0467,0.0481,0.0502,0.05,0.0504,0.0476,0.046,0.0407,0.0332,0.0335,0.0261,0.0259,0.0191,0.0188,0.0215,0.0214,0.0219,0.0219,0.0219,0.0219,0.0219,0,0.0339,0.0366,0.04,0.0418,0.0464,0.0476,0.0522,0.0532,0.055,0.0572,0.0539,0.0534,0.0463,0.0408,0.0341,0.0251,0.0266,0.0191,0.0173,0.0229,0.0231,0.0212,0.0212,0.0217,0.0217,0.0218,0.0218,0,0.0348,0.0368,0.0411,0.0454,0.0472,0.0505,0.0561,0.0591,0.06,0.0622,0.062,0.0578,0.0501,0.0416,0.0321,0.0263,0.0182,0.0146,0.0198,0.0184,0.0112,0.0114,0.0068,0.0067,0.0066,0.0065,0.0064,0,0.0356,0.0379,0.0438,0.0468,0.0492,0.0544,0.0582,0.0614,0.0642,0.0644,0.065,0.0585,0.0539,0.0383,0.0296,0.0157,0.014,0.0095,0.0115,0.0111,0.0098,0.0102,0.0106,0.0062,0.0062,0.0062,0.0061,0,0.0374,0.0395,0.043,0.0492,0.0539,0.0594,0.0645,0.0666,0.0693,0.0701,0.0664,0.0582,0.0489,0.0372,0.0259,0.0165,0.0126,0.0082,0.0085,0.0103,0.0102,0.0092,0.0097,0.0057,0.0058,0.0058,0.0058,0,0.0387,0.0413,0.0459,0.0513,0.0572,0.062,0.0651,0.0675,0.07,0.0694,0.0677,0.0579,0.0527,0.0374,0.0275,0.0173,0.0153,0.0128,0.0127,0.013,0.0168,0.0177,0.0138,0,0,0,0,0,0.0398,0.0427,0.0478,0.0535,0.0592,0.0628,0.0682,0.0705,0.0723,0.0698,0.0688,0.0597,0.0441,0.038,0.0272,0.0253,0.0136,0.0125,0.0108,0.0035,0.0039,0.0071,0,0,0,0,0,0,0.0406,0.0452,0.0475,0.0541,0.0581,0.0647,0.0681,0.0697,0.0683,0.0681,0.0599,0.0567,0.0416,0.0497,0.0267,0.0238,0.0213,0.0057,0.0055,0.0032,0.0036,0.004,0.0074,0,0,0,0,0]}]]